Regional Weather Roundup
Issued by NWS Nashville, TN

Home | Current Version | Previous Version | Text Only | Print | Product List | Glossary On
Versions: 1 2 3 4 5 6 7 8 9 10 11 12 13 14 15 16 17 18 19 20 21 22 23 24 25 26 27 28 29 30 31 32 33 34 35 36 37 38 39 40 41 42 43 44 45 46 47 48 49 50
000
ASUS44 KOHX 050910
RWROHX
MIDDLE TENNESSEE HOURLY WEATHER ROUNDUP
NATIONAL WEATHER SERVICE NASHVILLE TN
400 AM CDT SUN JUL 05 2015

NOTE: "FAIR" INDICATES FEW OR NO CLOUDS BELOW 12,000 FEET WITH
NO SIGNIFICANT WEATHER AND/OR OBSTRUCTIONS TO VISIBILITY.

* THESE REPORTS ARE NOT UNDER NWS QUALITY CONTROL AND MAY NOT
  REPORT WEATHER SUCH AS PRECIPITATION AND FOG.


TNZ005>011-023>034-057-059-062>066-078-080-051000
...NORTHERN MIDDLE TENNESSEE...

CITY           SKY/WX    TMP DP  RH WIND       PRES   REMARKS
CLARKSVILLE    CLOUDY    70  69  97 W7        30.03R FOG
CROSSVILLE     CLOUDY    68  64  87 NW3       30.05F
DICKSON          N/A     68  66  94 CALM      30.04S
LIVINGSTON     CLOUDY    68  65  90 NE3       30.03
NASHVILLE      CLOUDY    69  68  96 W3        30.03R
PORTLAND         N/A    N/A N/A N/A CALM      30.02R
ROCKWOOD       CLOUDY    66  66 100 NE3       30.05F VSB 1
SMYRNA         CLOUDY    69  68  97 NW9       30.03S
SPARTA         CLOUDY    70  70 100 W8        30.02R SQUALL
$$
TNZ056-058-060-061-075>077-079-093>097-051000
...SOUTHERN MIDDLE TENNESSEE...

CITY           SKY/WX    TMP DP  RH WIND       PRES   REMARKS
COLUMBIA       CLOUDY    68  68 100 SW3       30.03S
MCMINNVILLE    CLOUDY    68  68 100 CALM      30.03S
SHELBYVILLE    CLOUDY    70  70 100 W6          N/A
TULLAHOMA      CLOUDY    66  64  94 W8        30.06R
WINCHESTER     CLOUDY    66  66 100 W6        30.05R
$$


...KEY TO REMARKS...
VSB - VISIBILITY IN MILES
WCI - WIND CHILL INDEX
HX  - HEAT INDEX



USA.gov is the U.S. government's official web portal to all federal, state and local government web resources and services.